{"data":{"norad_id":62247,"intl_designator":"2024-232L","name":"QIANFAN-46","alt_names":[],"object_type":"PAYLOAD","status":"ACTIVE","operator":null,"country":"PRC","launch_date":"2024-12-05","launch_site_code":"TAISC","launch_vehicle":null,"mission":null,"orbit_class":"UNKNOWN","rcs_meters":null,"size_class":null,"mass_kg":null,"dimensions":null,"purposes":[],"wikipedia_slug":null,"has_3d_model":false,"image_url":null,"decayed_at":null,"tle_current":{"epoch":"2026-05-25T02:54:36.265248Z","epoch_age_seconds":64587,"freshness":"FRESH","line1":"1 62247U 24232L   26145.12125307  .00000083  00000+0  10934-3 0  9993","line2":"2 62247  89.0101  24.8694 0016438  85.9040 274.3989 13.51006018121273","mean_motion":13.51006018,"eccentricity":0.0016438,"inclination_deg":89.0101,"raan_deg":24.8694,"arg_perigee_deg":85.904,"mean_anomaly_deg":274.3989,"bstar":0.00010934,"rev_number":12127,"period_min":106.58723801481,"perigee_km":1056.3185915044,"apogee_km":1080.800350823,"semimajor_km":7446.6964711637,"source":"CELESTRAK","updated_at":"2026-05-25T13:38:02.867876Z"}}}